Retour au catalogue

GEESAT 3-01

ActifCommunicationsLEO
NORAD 61011·PAYLOAD·🇨🇳 China

Lancé Sep 5, 2024 depuis Taiyuan Satellite Launch Center

Loading…

Prochains Passages (prochaines 24 heures)

TLE

FraisSource: Space-Track

Époque: Sep 14, 2026, 21:05 UTC

1 61011U 24159A   26257.87851815  .00001562  00000-0  21025-3 0  9992
2 61011  50.0015  26.9842 0002735 227.0235 133.0475 14.84475783110007

Suivez GEESAT 3-01 en temps réel avec AllMySat

Download on the App Store